Date,TemperatureHighF,TemperatureAvgF,TemperatureLowF,DewpointHighF,DewpointAvgF,DewpointLowF,HumidityHigh,HumidityAvg,HumidityLow,PressureMaxIn,PressureMinIn,WindSpeedMaxMPH,WindSpeedAvgMPH,GustSpeedMaxMPH,PrecipitationSumIn
2013-1-1,50.3,37.9,32.2,41.0,34.5,30.1,96,88,65,30.20,30.11,0,0,1,0.00
2013-1-2,52.9,37.0,29.7,44.2,33.7,27.9,96,89,61,30.17,30.06,0,0,1,0.00
2013-1-3,54.0,37.9,30.1,43.2,34.4,28.6,96,88,61,30.20,30.08,0,0,1,0.00
2013-1-4,54.5,39.7,32.4,43.9,35.8,30.7,96,87,59,30.21,30.10,0,0,2,0.00
2013-1-5,51.1,44.2,36.2,47.5,42.3,34.1,96,93,83,30.21,30.02,1,0,5,0.48
2013-1-6,46.6,43.6,37.8,44.9,41.9,36.2,96,94,87,30.13,29.98,0,0,2,0.04
2013-1-7,54.5,44.2,36.8,49.3,41.8,35.0,96,92,79,30.20,30.08,0,0,2,0.00
2013-1-8,58.9,44.8,37.9,51.3,42.1,36.6,97,91,67,30.15,30.05,0,0,2,0.00
2013-1-9,52.3,44.0,38.6,49.9,41.2,37.3,96,90,79,30.07,29.94,1,0,3,0.00
2013-1-10,47.3,40.7,35.3,37.8,35.2,32.4,94,81,60,30.14,30.01,2,0,14,0.01
2013-1-11,48.9,38.7,30.1,39.0,33.8,28.3,95,83,58,30.20,30.08,3,0,8,0.00
2013-1-12,48.9,36.8,29.6,37.0,31.8,26.8,94,83,53,30.19,30.07,0,0,5,0.00
2013-1-13,48.2,34.1,26.3,32.6,25.5,15.6,93,74,30,30.20,30.10,0,0,3,0.00
2013-1-14,48.3,36.3,29.5,29.8,22.6,12.3,83,60,32,30.34,30.14,1,0,5,0.00
2013-1-15,50.4,35.0,27.6,35.3,28.7,24.3,91,79,50,30.42,30.33,0,0,3,0.00
2013-1-16,55.8,37.8,29.1,41.2,32.3,27.0,94,82,51,30.36,30.18,0,0,2,0.00
2013-1-17,61.8,41.8,32.7,45.3,36.0,30.6,95,82,43,30.18,30.05,0,0,0,0.00
2013-1-18,62.3,43.1,34.3,44.4,36.2,32.3,95,80,36,30.14,30.05,0,0,2,0.00
2013-1-19,62.9,42.3,34.7,45.5,36.8,32.6,95,83,40,30.16,30.07,0,0,2,0.00
2013-1-20,64.3,42.3,33.7,47.2,36.4,31.1,94,82,42,30.14,30.02,0,0,1,0.00
2013-1-21,63.1,43.5,32.5,46.0,36.1,30.2,93,78,37,30.09,30.00,0,0,1,0.00
2013-1-22,60.7,44.5,34.1,45.6,36.9,31.2,92,77,41,30.05,29.95,0,0,2,0.00
2013-1-23,52.3,47.5,43.2,49.8,44.0,37.4,94,88,80,30.01,29.90,0,0,1,0.06
2013-1-24,52.8,50.3,47.7,52.0,49.1,46.3,97,96,94,30.11,29.98,0,0,0,0.31
2013-1-25,63.5,53.7,48.3,59.6,52.1,46.7,98,94,83,30.10,29.96,0,0,2,0.02
2013-1-26,54.4,47.4,41.2,49.6,42.6,38.2,97,84,60,30.02,29.94,3,0,12,0.00
2013-1-27,54.4,46.0,41.5,40.2,38.1,35.0,90,74,49,30.10,30.00,1,0,9,0.00
2013-1-28,56.3,45.2,35.6,41.7,38.7,33.0,93,79,56,30.23,30.09,3,0,6,0.00
2013-1-29,58.0,45.5,37.8,45.7,40.1,35.1,93,82,62,30.28,30.17,1,0,6,0.00
2013-1-30,61.7,46.7,38.6,47.2,41.7,36.2,93,83,52,30.29,30.18,1,0,4,0.00
2013-1-31,64.2,44.9,35.8,49.1,40.5,34.0,96,86,56,30.21,30.11,0,0,2,0.00
2013-2-1,65.0,46.7,37.8,49.9,41.8,36.0,96,85,51,30.17,30.04,0,0,3,0.00
2013-2-2,64.3,47.5,39.5,52.4,43.8,37.5,95,88,60,30.21,30.14,1,0,5,0.00
2013-2-3,59.6,46.9,38.6,48.6,42.4,36.2,94,85,63,30.19,30.06,1,0,5,0.00
2013-2-4,62.7,45.1,34.1,50.0,40.7,32.3,95,86,58,30.11,29.98,0,0,1,0.00
2013-2-5,55.3,45.7,38.8,44.5,41.1,36.9,94,84,66,30.09,30.00,1,0,7,0.00
2013-2-6,60.4,44.0,33.2,47.4,38.9,31.1,95,83,60,30.13,30.05,1,0,5,0.00
2013-2-7,52.5,40.2,32.5,46.1,36.4,30.2,94,87,60,30.13,29.95,1,0,7,0.08
2013-2-8,49.5,40.6,33.6,41.0,36.6,31.2,95,86,60,29.95,29.86,5,0,12,0.02
2013-2-9,56.3,38.5,29.5,41.7,33.2,27.5,94,83,51,30.06,29.93,2,0,5,0.00
2013-2-10,58.3,39.4,29.3,39.4,32.4,27.3,94,79,37,30.06,29.95,1,0,3,0.00
2013-2-11,61.1,42.1,32.5,38.1,31.9,25.0,94,72,25,30.19,30.00,0,0,7,0.00
2013-2-12,62.6,42.9,31.9,43.1,36.1,29.0,92,79,40,30.29,30.19,2,0,4,0.00
2013-2-13,64.8,44.3,33.4,43.9,36.4,31.3,95,77,31,30.27,30.16,0,0,3,0.00
2013-2-14,67.6,47.4,35.8,46.1,38.6,33.5,95,75,37,30.16,30.07,0,0,3,0.00
2013-2-15,72.3,49.8,38.3,48.9,40.9,36.1,95,75,31,30.19,30.12,0,0,3,0.00
2013-2-16,70.3,50.4,40.1,49.1,42.1,37.4,92,76,33,30.16,29.98,0,0,3,0.00
2013-2-17,62.8,46.4,36.5,47.7,41.0,34.1,94,82,57,29.99,29.90,1,0,5,0.00
2013-2-18,49.4,43.0,36.2,43.4,38.3,34.1,93,84,67,29.99,29.92,1,0,6,0.00
2013-2-19,44.5,40.5,34.6,42.9,37.9,31.7,94,90,81,29.93,29.71,1,0,5,0.23
2013-2-20,56.8,42.3,31.2,39.3,35.1,29.1,95,78,45,30.01,29.77,6,0,13,0.00
2013-2-21,58.2,45.6,35.3,39.3,35.2,29.8,90,70,35,30.13,29.97,1,0,7,0.00
2013-2-22,65.4,44.6,31.2,42.7,35.2,28.9,94,73,35,30.19,30.11,2,0,9,0.00
2013-2-23,58.2,46.9,37.0,42.9,37.8,32.9,91,72,40,30.18,30.08,1,0,7,0.00
2013-2-24,61.6,46.7,35.9,33.9,28.2,19.8,88,52,24,30.20,30.09,2,0,7,0.00
2013-2-25,65.5,44.2,31.0,43.2,35.8,27.9,92,75,42,30.21,30.10,1,0,4,0.00
2013-2-26,67.1,47.0,33.5,36.1,30.7,19.1,92,61,19,30.14,30.05,1,0,5,0.00
2013-2-27,71.5,47.6,33.2,43.4,36.0,29.9,92,68,24,30.30,30.14,1,0,7,0.00
2013-2-28,70.3,51.3,39.5,52.0,44.2,36.8,94,78,49,30.38,30.29,0,0,3,0.00
2013-3-1,75.4,53.8,42.6,53.1,46.3,40.4,95,78,38,30.36,30.16,0,0,3,0.00
2013-3-2,70.4,54.8,46.1,52.6,46.6,42.8,93,76,37,30.17,30.01,1,0,4,0.00
2013-3-3,66.0,52.7,46.4,49.9,45.3,42.2,91,77,50,30.04,29.96,1,0,9,0.00
2013-3-4,64.5,50.0,44.3,48.9,43.6,40.7,89,79,56,30.08,29.98,1,0,9,0.00
2013-3-5,50.4,46.3,43.3,43.3,41.0,38.8,93,82,68,30.02,29.86,3,1,10,0.45
2013-3-6,53.1,46.2,37.3,46.2,42.3,34.9,95,87,63,30.02,29.84,5,0,15,0.46
2013-3-7,54.5,43.8,35.3,44.4,38.7,33.2,94,83,54,29.95,29.79,2,0,6,0.28
2013-3-8,54.5,46.0,40.8,46.4,41.1,38.6,95,84,62,30.02,29.75,1,0,9,0.04
2013-3-9,63.9,50.6,40.3,43.2,39.3,32.6,88,68,31,30.25,30.02,1,0,7,0.00
2013-3-10,70.6,47.7,35.3,48.2,39.8,33.2,94,77,32,30.28,30.18,1,0,5,0.00
2013-3-11,74.8,50.5,36.6,49.4,40.9,34.4,94,74,28,30.20,30.04,1,0,6,0.00
2013-3-12,78.6,53.7,38.9,53.9,44.8,36.7,94,75,36,30.08,29.98,1,0,4,0.00
2013-3-13,81.8,57.1,44.3,54.9,47.5,42.1,95,75,27,30.08,29.98,2,0,5,0.00
2013-3-14,76.9,56.6,44.8,58.6,46.9,39.3,95,73,37,30.07,30.01,1,0,5,0.00
2013-3-15,73.2,54.3,40.3,51.4,43.9,36.1,89,70,35,30.05,29.97,1,0,6,0.00
2013-3-16,75.3,54.6,40.2,52.9,41.8,33.0,94,67,25,30.04,29.95,2,0,10,0.00
2013-3-17,73.7,53.0,39.8,48.6,41.2,37.1,91,67,37,30.06,29.96,1,0,6,0.00
2013-3-18,67.1,50.5,37.5,53.7,43.0,35.1,94,77,52,30.06,29.96,1,0,5,0.00
2013-3-19,73.9,53.3,40.8,49.4,43.1,37.0,92,72,33,30.09,29.98,2,0,10,0.07
2013-3-20,62.3,54.6,50.1,53.6,50.5,48.4,95,86,65,30.07,30.00,1,0,4,0.03
2013-3-21,66.4,51.5,39.1,48.4,40.6,32.4,91,70,31,30.06,29.93,1,0,7,0.01
2013-3-22,68.5,51.9,38.2,38.1,29.1,17.1,91,50,16,30.01,29.93,1,0,10,0.00
2013-3-23,69.4,50.1,35.9,41.5,33.8,24.9,84,59,20,30.05,29.96,0,0,6,0.00
2013-3-24,74.6,51.8,36.5,46.2,40.3,33.3,91,69,32,30.02,29.90,2,0,5,0.00
2013-3-25,70.4,56.3,40.8,50.3,43.2,38.7,93,64,37,29.95,29.86,2,0,6,0.00
2013-3-26,72.1,53.4,43.1,51.2,44.6,38.9,90,74,44,29.93,29.84,1,0,6,0.00
2013-3-27,63.9,53.0,45.2,52.1,48.0,42.3,92,84,63,29.96,29.88,2,0,7,0.00
2013-3-28,68.8,55.8,48.6,56.5,51.6,45.8,95,87,59,30.02,29.94,3,0,7,0.10
2013-3-29,73.5,55.9,43.1,57.7,48.3,40.9,95,78,43,30.01,29.96,2,0,9,0.00
2013-3-30,67.4,54.6,49.5,51.9,49.5,47.0,93,84,51,30.02,29.95,2,0,7,0.33
2013-3-31,61.6,54.9,51.7,54.3,50.9,49.2,95,87,67,30.00,29.94,3,0,10,0.09
2013-4-1,64.0,54.4,47.9,54.0,50.3,45.1,95,87,57,30.09,29.98,2,0,7,0.26
2013-4-2,71.7,53.4,41.6,56.3,47.7,39.4,95,83,50,30.11,30.00,1,0,4,0.00
2013-4-3,76.7,55.7,43.2,55.4,46.8,41.0,95,76,33,30.06,29.92,2,0,6,0.00
2013-4-4,57.2,52.3,48.2,55.2,50.3,45.1,95,93,89,30.06,29.95,1,0,4,0.33
2013-4-5,65.6,56.1,51.4,54.0,49.9,46.9,95,81,52,30.12,30.04,3,0,7,0.00
2013-4-6,66.6,54.0,44.8,54.9,48.1,42.3,94,82,55,30.14,30.06,2,0,10,0.00
2013-4-7,68.5,53.0,43.9,54.1,46.7,41.7,94,81,46,30.12,29.83,6,0,12,0.03
2013-4-8,64.5,51.5,43.3,48.2,38.5,29.8,92,65,28,29.95,29.75,2,0,21,0.03
2013-4-9,72.1,55.2,39.5,43.9,36.4,30.4,91,56,22,30.01,29.93,3,0,12,0.00
2013-4-10,86.5,66.4,51.3,50.7,43.3,34.3,71,46,22,30.08,29.96,3,0,12,0.00
2013-4-11,72.0,57.5,47.0,48.6,44.7,40.3,84,64,34,30.00,29.79,3,0,12,0.00
2013-4-12,76.2,54.5,38.9,52.3,44.6,36.2,94,73,42,29.86,29.76,2,0,6,0.00
2013-4-13,70.5,51.8,42.6,52.6,42.3,37.8,92,72,37,29.86,29.78,3,0,15,0.00
2013-4-14,67.8,51.6,39.5,44.3,39.7,34.9,90,67,32,29.86,29.80,1,0,15,0.00
2013-4-15,56.5,48.1,43.5,45.5,38.4,34.0,91,70,48,29.89,29.79,6,0,17,0.01
2013-4-16,65.7,48.8,34.4,37.9,33.2,27.3,92,60,26,30.06,29.90,3,0,12,0.00
2013-4-17,67.9,52.2,39.6,37.7,31.8,24.9,80,51,21,30.18,30.06,2,0,9,0.00
2013-4-18,76.3,54.6,36.9,40.8,34.5,29.7,87,54,19,30.19,30.11,1,0,6,0.00
2013-4-19,81.2,59.1,41.1,50.0,43.1,36.8,89,61,28,30.17,30.01,2,0,12,0.00
2013-4-20,82.4,61.7,46.2,45.7,42.2,36.7,87,55,20,30.02,29.90,1,0,6,0.00
2013-4-21,88.2,63.0,44.6,48.5,42.3,35.6,89,56,17,29.96,29.86,0,0,6,0.00
2013-4-22,81.6,60.5,48.8,54.7,47.7,42.1,88,66,31,29.90,29.81,2,0,5,0.00
2013-4-23,74.3,54.9,43.1,53.2,47.1,40.9,93,78,46,29.89,29.80,1,0,5,0.00
2013-4-24,60.4,50.9,44.8,49.4,46.0,41.8,91,84,66,29.92,29.76,2,0,6,0.00
2013-4-25,71.1,54.8,42.8,50.5,46.1,40.6,94,75,47,30.07,29.92,2,0,6,0.00
2013-4-26,77.2,56.2,41.9,55.4,47.8,39.2,93,76,45,30.15,30.06,1,0,6,0.00
2013-4-27,83.0,59.1,42.3,54.7,47.4,39.9,93,70,30,30.15,30.01,2,0,5,0.00
2013-4-28,83.8,59.9,42.3,56.6,49.1,39.6,93,72,34,30.01,29.83,2,0,5,0.00
2013-4-29,92.1,68.0,49.4,52.2,46.7,41.1,92,55,19,29.83,29.70,0,0,9,0.00
2013-4-30,83.2,63.0,47.4,53.8,44.5,35.3,90,58,19,29.78,29.70,2,0,6,0.00
2013-5-1,78.5,58.0,43.8,53.2,46.2,37.7,91,68,37,30.03,29.78,1,0,6,0.00
2013-5-2,91.2,66.0,47.1,50.4,43.0,32.8,88,53,13,30.06,30.02,2,0,6,0.00
2013-5-3,89.9,66.0,47.0,47.6,39.6,30.1,75,45,14,30.03,29.75,2,0,7,0.00
2013-5-4,77.8,57.2,47.9,52.2,44.7,39.5,82,65,28,29.75,29.59,2,0,6,0.00
2013-5-5,61.6,56.1,52.0,49.9,47.7,45.8,83,74,58,29.74,29.57,5,1,13,0.00
2013-5-6,62.8,56.5,51.4,53.1,49.5,47.7,88,78,59,29.91,29.74,2,0,10,0.00
2013-5-7,71.3,59.1,51.1,52.1,48.5,44.7,89,71,40,29.99,29.89,2,0,7,0.00
2013-5-8,72.4,56.3,44.2,52.3,46.9,41.3,92,73,44,30.08,29.98,2,0,10,0.00
2013-5-9,74.2,58.5,47.1,54.0,48.9,43.4,89,72,47,30.11,30.00,1,0,5,0.00
2013-5-10,79.6,60.1,44.3,57.0,50.0,41.6,92,72,43,30.12,30.01,0,0,6,0.00
2013-5-11,90.6,65.4,48.6,58.6,50.9,46.0,93,66,25,30.08,29.97,1,0,5,0.00
2013-5-12,91.0,67.1,48.8,60.1,51.3,45.7,91,62,28,30.06,29.96,2,0,6,0.00
2013-5-13,87.7,63.9,46.7,57.2,48.9,41.8,84,62,33,30.02,29.90,1,0,7,0.00
2013-5-14,74.2,59.2,51.3,54.5,47.2,39.5,84,67,30,29.99,29.86,1,0,6,0.00
2013-5-15,68.6,59.0,53.5,47.8,44.0,40.2,80,59,36,30.00,29.95,2,0,14,0.00
2013-5-16,72.1,59.1,53.1,52.8,48.9,45.5,87,71,44,29.99,29.90,3,0,9,0.00
2013-5-17,71.4,56.7,45.4,45.8,42.4,28.9,89,63,21,30.03,29.93,5,0,16,0.00
2013-5-18,76.9,58.9,44.9,49.8,45.0,38.0,88,63,29,30.07,30.01,3,0,13,0.00
2013-5-19,85.2,60.7,44.5,48.3,42.7,33.7,90,58,16,30.05,29.92,2,0,9,0.00
2013-5-20,90.5,66.3,45.8,46.8,38.2,30.8,83,45,13,29.93,29.86,5,0,10,0.00
2013-5-21,69.5,56.0,48.3,49.3,41.1,33.4,74,59,29,29.94,29.85,3,0,13,0.00
2013-5-22,67.1,52.1,41.2,41.3,34.9,22.6,82,56,21,29.93,29.88,3,0,15,0.00
2013-5-23,69.4,54.0,46.8,42.9,40.1,37.8,77,61,33,29.96,29.86,2,0,12,0.00
2013-5-24,74.2,52.6,36.9,45.4,39.8,33.7,91,66,28,29.96,29.89,2,0,7,0.00
2013-5-25,70.1,55.3,47.7,46.8,43.0,37.9,81,66,37,30.01,29.92,3,0,13,0.00
2013-5-26,72.8,59.3,51.9,52.8,48.6,45.4,87,70,40,30.08,30.00,3,0,12,0.00
2013-5-27,66.1,58.2,49.0,54.4,50.2,44.6,86,75,61,30.08,29.95,3,0,8,0.00
2013-5-28,74.3,61.7,52.5,56.7,52.1,46.5,91,73,41,29.95,29.85,3,0,9,0.01
2013-5-29,75.9,59.3,49.4,56.0,48.6,44.6,86,69,41,29.92,29.84,3,0,10,0.00
2013-5-30,80.3,59.6,43.6,47.4,39.9,22.2,89,56,12,29.93,29.87,2,0,10,0.00
2013-5-31,90.2,65.4,43.1,50.8,41.7,33.6,88,52,14,29.93,29.84,1,0,7,0.00
2013-6-1,94.3,69.8,49.6,55.6,47.7,40.4,83,53,19,29.86,29.70,1,0,10,0.00
2013-6-2,75.4,60.3,49.9,55.5,50.3,45.8,87,71,50,29.72,29.66,2,0,6,0.00
2013-6-3,64.6,55.5,50.7,51.9,49.0,46.6,91,80,61,29.82,29.69,3,0,9,0.00
2013-6-4,67.8,54.8,45.5,54.3,48.8,42.7,92,81,60,29.92,29.80,2,0,7,0.00
2013-6-5,73.9,57.2,45.7,55.6,49.0,43.0,92,76,50,29.93,29.86,2,0,7,0.00
2013-6-6,77.0,59.8,50.9,56.1,50.8,46.6,90,74,47,29.90,29.80,2,0,5,0.00
2013-6-7,90.3,63.7,50.8,61.0,53.0,48.0,91,72,37,29.85,29.69,1,0,6,0.00
2013-6-8,75.9,59.9,49.1,57.1,52.2,46.3,93,77,52,29.81,29.68,2,0,12,0.00
2013-6-9,60.5,57.1,54.4,54.9,52.7,50.4,93,86,78,29.84,29.78,2,0,6,0.01
2013-6-10,66.9,59.0,54.8,52.4,50.5,48.1,82,74,58,29.89,29.80,3,0,12,0.00
2013-6-11,79.8,62.8,51.7,57.4,52.5,48.0,89,72,41,29.90,29.82,1,0,5,0.00
2013-6-12,82.7,60.4,46.4,56.2,46.0,35.9,92,64,19,29.97,29.85,2,0,12,0.00
2013-6-13,82.6,61.6,45.2,50.9,44.4,33.8,87,58,24,30.02,29.94,3,0,12,0.00
2013-6-14,88.0,65.0,45.2,48.2,41.6,36.7,87,51,18,29.94,29.76,2,0,7,0.00
2013-6-15,72.7,57.4,46.1,53.6,48.1,41.2,90,73,49,29.96,29.78,1,0,5,0.00
2013-6-16,85.3,63.0,48.5,56.0,48.0,42.7,91,64,25,30.03,29.95,2,0,12,0.00
2013-6-17,78.1,61.9,51.3,54.7,49.4,45.0,82,66,40,30.03,29.98,2,0,12,0.00
2013-6-18,69.8,58.7,51.1,50.9,47.1,41.7,87,68,37,29.98,29.95,5,0,16,0.00
2013-6-19,73.8,59.6,48.3,51.2,45.2,38.3,85,62,29,29.99,29.93,2,0,10,0.00
2013-6-20,81.6,59.7,43.7,50.6,43.9,34.9,90,61,22,29.96,29.85,1,0,12,0.00
2013-6-21,84.1,67.8,44.6,52.9,45.0,32.2,86,48,18,29.92,29.86,2,0,7,0.00
2013-6-22,88.8,63.7,45.5,54.2,46.8,34.2,91,60,22,29.88,29.79,1,0,9,0.00
2013-6-23,68.9,62.4,57.2,58.7,55.2,51.2,86,78,65,29.83,29.76,1,0,6,0.00
2013-6-24,61.5,59.6,58.6,57.9,56.7,55.9,93,90,86,29.87,29.73,1,0,4,0.02
2013-6-25,66.3,60.9,56.9,64.5,58.9,54.9,95,93,91,29.95,29.86,0,0,3,0.10
2013-6-26,87.6,70.3,60.5,66.3,61.1,58.5,95,76,44,29.97,29.89,2,0,9,0.00
2013-6-27,94.9,72.4,56.3,63.3,58.4,53.7,93,67,33,29.99,29.93,0,0,6,0.00
2013-6-28,100.2,76.7,56.9,62.3,54.4,46.5,86,53,21,29.96,29.83,1,0,6,0.00
2013-6-29,101.0,78.1,58.6,58.5,51.2,41.8,74,45,15,29.86,29.75,1,0,6,0.00
2013-6-30,98.7,75.0,56.7,58.6,52.4,42.6,82,52,15,29.79,29.70,1,0,6,0.00
2013-7-1,88.2,71.9,57.3,58.9,55.0,50.7,82,59,30,29.82,29.72,2,0,6,0.00
2013-7-2,86.2,71.3,59.6,60.9,56.3,54.4,84,62,36,29.87,29.77,3,0,7,0.00
2013-7-3,91.4,71.6,57.3,60.8,57.1,53.3,87,64,33,29.87,29.72,1,0,4,0.00
2013-7-4,87.4,69.8,58.9,61.7,57.4,54.1,85,67,40,29.73,29.67,1,0,5,0.00
2013-7-5,77.2,63.0,52.8,56.6,52.8,50.0,91,72,48,29.76,29.68,2,0,9,0.00
2013-7-6,74.4,58.7,53.5,54.8,51.3,49.8,89,78,48,29.76,29.70,3,0,6,0.00
2013-7-7,77.3,60.6,52.6,54.8,51.2,48.4,87,73,43,29.82,29.74,1,0,6,0.00
2013-7-8,82.1,60.8,52.2,54.1,49.4,35.5,89,72,19,29.92,29.81,2,0,6,0.00
2013-7-9,96.1,66.7,48.6,56.9,51.0,45.5,91,64,22,29.94,29.86,2,0,5,0.00
2013-7-10,83.0,63.2,53.1,56.9,53.1,49.9,91,73,38,29.93,29.85,1,0,9,0.00
2013-7-11,77.4,60.6,52.8,55.6,52.1,48.8,92,76,47,29.89,29.83,2,0,6,0.00
2013-7-12,81.6,61.3,51.3,55.9,51.1,48.5,91,73,37,29.89,29.82,1,0,7,0.00
2013-7-13,84.2,61.9,45.7,56.2,50.4,42.7,92,70,35,29.91,29.84,2,0,5,0.00
2013-7-14,82.9,62.0,48.9,56.6,51.1,46.3,92,71,37,29.93,29.83,2,0,6,0.00
2013-7-15,75.8,59.7,52.0,54.8,51.7,49.7,92,77,46,29.87,29.78,2,0,6,0.00
2013-7-16,76.7,61.0,53.5,55.7,52.6,50.6,91,76,45,29.97,29.82,1,0,5,0.00
2013-7-17,84.1,64.5,51.4,57.9,52.9,47.7,89,69,39,30.01,29.94,2,0,7,0.00
2013-7-18,86.1,63.8,48.0,57.3,51.9,44.9,93,70,34,29.99,29.87,1,0,6,0.00
2013-7-19,81.3,61.9,48.9,57.8,52.0,45.8,93,73,42,29.90,29.77,2,0,5,0.00
2013-7-20,76.7,59.2,51.9,57.2,51.9,48.7,92,79,51,29.81,29.71,1,0,5,0.00
2013-7-21,82.9,63.7,50.4,57.4,53.0,47.9,92,71,38,29.84,29.72,3,0,7,0.00
2013-7-22,75.2,64.7,57.5,59.2,55.7,53.8,89,74,48,29.90,29.82,2,0,6,0.00
2013-7-23,83.6,66.5,59.0,58.3,55.4,52.6,87,70,40,29.92,29.89,1,0,6,0.00
2013-7-24,86.1,67.1,54.5,59.5,54.8,51.3,91,68,37,29.91,29.84,1,0,5,0.00
2013-7-25,83.0,63.5,51.0,58.3,53.2,48.2,92,72,41,29.97,29.87,1,0,6,0.00
2013-7-26,81.1,62.7,51.1,58.2,53.3,48.3,92,74,44,30.03,29.95,1,0,5,0.00
2013-7-27,79.0,62.4,53.3,57.8,53.6,50.7,91,75,46,29.98,29.82,1,0,5,0.00
2013-7-28,73.3,59.8,53.1,56.9,52.7,50.4,92,79,53,29.84,29.78,2,0,6,0.00
2013-7-29,71.8,59.1,54.5,55.3,51.4,49.4,85,76,56,29.98,29.82,2,0,9,0.00
2013-7-30,76.5,61.4,52.9,54.9,51.3,48.8,87,72,44,30.03,29.96,2,0,9,0.00
2013-7-31,79.1,62.6,53.2,56.6,51.6,47.6,89,70,45,30.03,29.94,1,0,6,0.00
2013-8-1,81.8,62.3,47.9,51.1,46.8,41.8,90,62,25,30.01,29.90,1,0,7,0.00
2013-8-2,81.5,60.1,44.9,55.9,49.6,41.9,92,72,40,29.91,29.84,2,0,7,0.00
2013-8-3,74.4,59.0,52.2,55.8,51.9,49.7,91,79,51,29.93,29.86,2,0,7,0.00
2013-8-4,76.3,60.3,52.6,56.9,52.3,49.2,92,77,48,29.95,29.88,2,0,6,0.00
2013-8-5,81.1,61.0,49.9,56.6,51.1,47.1,91,73,40,29.96,29.86,2,0,7,0.00
2013-8-6,75.3,60.1,52.2,57.2,52.2,48.9,90,77,51,30.00,29.90,1,0,6,0.00
2013-8-7,76.7,62.7,55.1,55.7,53.1,50.5,92,73,47,30.03,29.95,2,0,6,0.00
2013-8-8,76.8,60.9,53.5,57.5,52.6,49.4,91,76,46,29.98,29.87,1,0,7,0.00
2013-8-9,78.3,62.5,52.8,57.0,52.8,48.7,87,73,47,29.93,29.85,3,0,6,0.00
2013-8-10,83.5,65.0,55.0,59.3,54.7,51.5,90,72,42,29.97,29.91,2,0,7,0.00
2013-8-11,84.3,63.8,51.0,58.9,54.0,47.9,92,73,41,29.96,29.86,1,0,5,0.00
2013-8-12,84.9,63.4,48.8,58.0,52.4,46.0,93,72,37,29.93,29.86,1,0,6,0.00
2013-8-13,89.3,65.9,48.3,56.1,50.7,45.5,93,65,27,29.92,29.83,1,0,5,0.00
2013-8-14,90.5,65.5,47.6,58.0,49.4,38.2,87,63,17,29.91,29.84,3,0,7,0.00
2013-8-15,94.9,70.2,54.4,63.6,57.9,51.2,92,70,29,29.89,29.82,3,0,7,0.00
2013-8-16,94.5,71.9,57.3,64.1,57.1,50.2,92,65,30,29.91,29.84,2,0,7,0.00
2013-8-17,86.0,66.0,54.4,58.7,52.7,47.2,81,65,34,29.93,29.82,2,0,12,0.00
2013-8-18,94.5,68.1,51.6,60.0,53.8,46.8,92,67,20,29.84,29.71,1,0,5,0.00
2013-8-19,88.2,66.6,55.1,59.4,54.7,51.6,90,69,32,29.86,29.74,3,0,6,0.00
2013-8-20,80.3,63.0,55.4,56.3,53.6,51.2,91,74,38,29.86,29.78,2,0,6,0.00
2013-8-21,82.0,63.3,54.4,54.7,52.2,50.1,90,71,33,29.88,29.78,1,0,6,0.00
2013-8-22,81.8,63.2,48.9,55.7,51.7,45.8,92,69,36,29.90,29.80,1,0,5,0.00
2013-8-23,85.2,64.1,48.4,57.1,51.2,45.3,91,68,28,29.87,29.74,1,0,10,0.00
2013-8-24,86.5,65.3,49.1,57.6,52.7,46.0,91,68,35,29.83,29.76,2,0,12,0.00
2013-8-25,81.8,65.3,55.6,59.0,55.1,52.4,91,72,41,29.89,29.82,2,0,10,0.00
2013-8-26,87.2,67.3,58.3,58.7,54.5,48.2,86,66,37,29.93,29.81,2,0,10,0.00
2013-8-27,89.7,65.2,48.9,54.9,50.2,44.6,88,63,28,29.84,29.73,2,0,7,0.00
2013-8-28,91.2,67.5,50.8,60.0,53.9,47.7,92,67,27,29.88,29.77,2,0,6,0.00
2013-8-29,90.1,68.7,52.2,62.6,56.8,49.4,93,70,37,29.97,29.87,2,0,4,0.00
2013-8-30,97.9,72.3,55.3,61.2,54.2,49.0,92,60,21,29.96,29.83,2,0,8,0.00
2013-8-31,91.8,71.3,55.0,55.0,50.4,45.8,78,53,21,29.89,29.81,2,0,9,0.00
2013-9-1,87.3,71.1,59.6,62.1,55.0,51.8,77,59,33,29.86,29.78,2,0,9,0.00
2013-9-2,85.2,70.6,63.2,61.9,57.8,55.1,80,66,42,29.89,29.79,3,0,7,0.00
2013-9-3,84.3,67.2,54.2,58.2,52.7,47.3,89,64,31,29.91,29.85,2,0,7,0.00
2013-9-4,82.8,66.2,55.3,56.2,53.6,51.2,89,67,35,29.96,29.88,2,0,10,0.00
2013-9-5,80.3,66.6,60.1,55.4,53.7,51.7,80,65,38,29.94,29.89,3,0,13,0.00
2013-9-6,94.4,68.0,47.7,54.1,49.8,44.6,91,59,22,29.93,29.74,2,0,9,0.00
2013-9-7,91.6,68.6,54.1,56.5,50.9,45.8,81,58,24,29.82,29.75,2,0,7,0.00
2013-9-8,88.9,65.5,51.1,59.0,53.7,48.0,91,70,34,29.80,29.69,2,0,5,0.00
2013-9-9,90.3,66.6,52.9,58.6,53.9,49.7,91,68,31,29.74,29.65,1,0,5,0.00
2013-9-10,61.5,58.0,53.6,56.0,54.0,50.4,92,87,81,29.85,29.69,2,0,5,0.00
2013-9-11,73.5,63.0,55.4,58.6,55.0,51.3,86,76,57,29.93,29.85,1,0,5,0.00
2013-9-12,85.5,65.5,54.4,60.5,55.9,50.7,89,73,42,29.91,29.80,2,0,5,0.00
2013-9-13,86.5,66.2,51.7,59.8,53.5,44.4,92,68,26,29.85,29.68,1,0,5,0.00
2013-9-14,85.1,62.9,49.1,57.0,51.5,46.0,92,70,34,29.75,29.66,2,0,7,0.00
2013-9-15,85.5,63.8,49.2,57.2,52.3,46.1,92,70,35,29.79,29.72,2,0,9,0.00
2013-9-16,87.8,64.1,50.7,58.8,52.4,47.9,93,70,34,29.81,29.72,2,0,7,0.00
2013-9-17,72.1,62.1,53.9,53.3,51.6,48.3,82,70,43,29.83,29.77,5,0,15,0.00
2013-9-18,85.5,62.4,47.9,51.5,45.4,38.9,92,61,20,29.83,29.73,1,0,7,0.00
2013-9-19,92.5,65.3,45.8,49.8,43.3,39.3,86,52,17,29.78,29.66,2,0,6,0.00
2013-9-20,78.5,61.7,50.7,58.4,50.2,40.0,82,67,44,29.81,29.70,2,0,12,0.00
2013-9-21,61.8,58.5,51.0,59.5,55.9,48.8,94,91,83,29.85,29.75,1,0,5,0.27
2013-9-22,72.9,56.8,46.4,58.2,50.0,44.5,94,80,49,29.94,29.85,2,0,9,0.00
2013-9-23,82.7,62.8,48.0,56.9,51.6,45.5,94,71,34,29.94,29.83,1,0,3,0.00
2013-9-24,74.7,61.4,54.1,54.5,50.9,47.4,89,70,42,29.92,29.86,5,0,12,0.00
2013-9-25,65.8,57.7,52.9,48.4,45.5,40.7,80,65,43,29.87,29.76,2,0,15,0.00
2013-9-26,75.5,55.7,41.9,45.1,39.0,32.2,91,60,23,29.92,29.76,2,0,10,0.00
2013-9-27,77.9,56.6,41.5,42.8,36.0,28.4,84,53,17,30.01,29.92,3,0,6,0.00
2013-9-28,86.3,60.6,43.8,49.1,38.8,34.2,79,50,18,30.01,29.91,3,0,6,0.00
2013-9-29,84.2,62.4,47.9,56.0,49.6,43.0,89,66,31,30.03,29.94,1,0,4,0.00
2013-9-30,78.5,62.8,51.6,58.5,54.0,48.8,91,75,48,30.01,29.89,5,0,12,0.00
2013-10-1,76.3,60.8,48.9,53.4,46.7,40.3,86,62,36,29.95,29.85,1,0,5,0.00
2013-10-2,80.1,57.0,44.5,50.3,44.4,38.5,90,67,34,29.94,29.85,2,0,10,0.00
2013-10-3,72.3,55.5,41.3,40.6,35.8,29.6,85,54,22,29.98,29.85,1,0,10,0.00
2013-10-4,79.1,64.9,52.7,36.0,30.3,25.3,48,28,17,30.03,29.85,1,0,7,0.00
2013-10-5,87.2,61.1,45.4,37.7,32.4,23.5,62,39,10,30.10,30.01,1,0,6,0.00
2013-10-6,86.7,61.0,46.2,40.0,32.6,22.1,64,39,10,30.04,29.93,1,0,5,0.00
2013-10-7,86.3,61.2,46.4,42.8,33.4,24.1,63,39,15,29.93,29.80,1,0,5,0.00
2013-10-8,73.3,53.8,42.1,50.5,41.3,31.9,86,64,43,29.85,29.67,1,0,5,0.00
2013-10-9,66.9,53.7,45.4,48.0,43.8,38.5,89,71,46,29.70,29.56,1,0,7,0.00
2013-10-10,63.4,49.5,40.5,49.2,43.2,36.6,88,79,59,29.96,29.70,1,0,6,0.00
2013-10-11,73.9,53.2,44.1,50.4,45.4,41.1,91,77,37,30.02,29.90,1,0,5,0.00
2013-10-12,75.2,53.1,39.6,50.1,42.5,29.7,93,71,29,29.95,29.83,1,0,5,0.00
2013-10-13,73.4,54.6,42.5,50.9,45.0,39.5,92,72,41,30.00,29.85,1,0,6,0.00
2013-10-14,78.4,55.7,41.8,44.3,39.0,36.3,86,59,24,30.03,29.91,0,0,2,0.00
2013-10-15,80.0,57.9,43.5,38.0,35.3,31.5,73,47,18,29.96,29.86,1,0,4,0.00
2013-10-16,83.0,58.2,44.6,41.8,34.4,28.4,70,46,15,30.01,29.93,2,0,7,0.00
2013-10-17,82.8,58.7,44.6,40.8,34.4,29.9,71,45,18,30.01,29.88,1,0,5,0.00
2013-10-18,85.0,58.2,43.1,41.2,35.5,31.0,68,46,16,29.98,29.89,0,0,5,0.00
2013-10-19,86.3,58.6,44.1,44.7,39.7,34.6,79,55,16,29.99,29.91,1,0,4,0.00
2013-10-20,82.6,56.4,43.1,49.6,42.7,37.7,83,64,27,29.95,29.83,0,0,5,0.00
2013-10-21,79.9,53.7,40.1,48.3,41.8,36.1,88,68,28,29.93,29.82,1,0,4,0.00
2013-10-22,78.8,52.7,39.9,49.6,43.3,37.0,92,74,31,29.94,29.85,1,0,4,0.00
2013-10-23,76.2,51.5,40.8,52.7,44.8,38.1,92,80,43,29.92,29.81,0,0,5,0.00
2013-10-24,65.0,49.9,43.5,50.7,44.9,40.1,91,84,59,30.05,29.89,1,0,5,0.00
2013-10-25,75.1,51.5,39.2,51.4,43.7,36.8,93,77,42,30.09,30.00,0,0,3,0.00
2013-10-26,79.2,54.8,41.6,50.4,44.2,38.9,92,72,32,30.07,29.93,0,0,3,0.00
2013-10-27,64.1,50.0,40.5,50.6,43.7,37.5,92,80,58,29.97,29.67,3,0,12,0.00
2013-10-28,58.9,52.1,49.4,47.6,45.4,41.7,90,78,54,29.80,29.61,2,0,10,0.02
2013-10-29,60.1,50.3,42.8,49.9,45.1,39.2,92,83,65,29.98,29.80,1,0,6,0.00
2013-10-30,67.7,48.5,38.2,47.8,41.1,35.8,93,78,45,30.07,29.98,1,0,5,0.00
2013-10-31,72.6,51.4,40.6,49.7,41.7,37.9,93,73,37,30.11,29.99,0,0,5,0.00
2013-11-1,75.3,52.8,41.2,45.9,40.1,37.7,91,66,27,30.07,29.95,0,0,4,0.00
2013-11-2,75.9,53.1,40.3,49.0,41.2,34.6,84,67,33,29.96,29.84,2,0,7,0.00
2013-11-3,62.9,50.5,41.1,41.9,32.8,20.2,88,57,22,29.95,29.84,1,0,6,0.00
2013-11-4,64.8,48.0,36.0,33.9,30.2,26.4,82,55,24,29.98,29.84,1,0,6,0.00
2013-11-5,71.5,57.4,43.9,36.2,30.4,24.6,61,37,22,30.16,29.97,0,0,7,0.00
2013-11-6,73.2,53.6,41.9,41.5,35.8,32.7,76,54,24,30.18,30.08,0,0,3,0.00
2013-11-7,74.4,53.9,43.8,45.8,37.2,32.4,70,55,25,30.09,29.99,0,0,2,0.00
2013-11-8,74.8,54.5,42.6,47.4,42.7,38.3,89,67,32,30.01,29.87,1,0,3,0.00
2013-11-9,69.8,51.6,43.1,47.4,43.1,36.7,91,75,30,30.00,29.90,1,0,5,0.00
2013-11-10,66.8,50.9,41.1,48.5,44.7,38.1,91,81,49,30.06,29.96,1,0,4,0.00
2013-11-11,67.1,51.5,39.6,49.9,43.7,36.8,92,77,44,30.09,30.00,0,0,2,0.00
2013-11-12,72.8,57.3,48.2,49.6,44.9,41.6,78,65,38,30.18,30.07,0,0,4,0.00
2013-11-13,78.6,55.9,44.6,46.3,42.3,38.1,88,65,25,30.17,30.02,0,0,7,0.00
2013-11-14,69.8,53.5,42.8,52.9,44.2,39.2,91,72,47,30.03,29.82,1,0,7,0.00
2013-11-15,65.3,51.7,40.2,45.9,41.1,35.4,83,69,36,29.82,29.65,1,0,7,0.00
2013-11-16,61.5,48.0,37.8,47.8,41.0,34.5,92,78,49,29.88,29.72,2,0,9,0.00
2013-11-17,61.3,48.4,41.2,48.6,43.1,38.2,92,83,61,30.03,29.87,1,0,4,0.00
2013-11-18,60.1,46.5,37.5,46.7,40.9,35.1,93,82,56,30.09,30.01,1,0,3,0.00
2013-11-19,58.9,51.0,42.9,51.3,47.1,39.3,92,87,71,30.05,29.90,1,0,3,0.31
2013-11-20,56.5,53.5,49.1,54.8,51.7,47.4,94,93,92,29.90,29.77,0,0,3,0.34
2013-11-21,55.5,50.2,44.9,48.1,41.9,27.8,95,76,39,29.87,29.80,1,0,9,0.00
2013-11-22,62.3,48.8,37.6,40.8,31.4,21.0,81,54,22,29.93,29.84,1,0,9,0.00
2013-11-23,61.6,44.9,36.3,47.4,38.5,31.9,90,79,48,30.05,29.90,1,0,6,0.00
2013-11-24,60.4,44.1,34.9,45.7,38.6,32.5,93,82,55,30.19,30.04,0,0,3,0.00
2013-11-25,63.0,45.8,36.9,47.0,39.6,34.8,94,81,45,30.25,30.17,0,0,4,0.00
2013-11-26,62.0,47.7,38.9,49.1,41.7,35.9,92,81,56,30.18,29.96,0,0,0,0.00
2013-11-27,62.3,47.9,39.8,48.0,41.5,37.4,93,80,48,29.95,29.77,0,0,2,0.00
2013-11-28,62.1,48.1,41.5,47.7,42.0,38.8,92,81,50,30.01,29.78,0,0,2,0.00
2013-11-29,66.7,47.8,39.5,47.1,40.3,36.7,93,77,42,30.16,30.01,0,0,2,0.00
2013-11-30,65.8,46.9,37.6,47.0,39.4,34.9,92,77,40,30.20,30.10,0,0,1,0.00
2013-12-1,69.3,49.7,39.5,47.9,40.2,36.6,93,73,32,30.26,30.14,0,0,5,0.00
2013-12-2,67.6,49.8,39.2,48.2,42.5,36.5,92,78,37,30.17,29.91,2,0,5,0.00
2013-12-3,50.7,46.6,35.9,47.6,38.2,30.7,90,74,52,29.91,29.77,2,0,9,0.00
2013-12-4,50.9,35.9,28.4,30.9,25.9,19.8,85,70,30,30.01,29.86,0,0,4,0.00
2013-12-5,49.2,33.4,25.4,31.1,23.8,18.3,84,70,33,30.11,30.00,1,0,5,0.00
2013-12-6,49.4,37.5,26.6,45.5,31.0,22.4,93,78,50,30.14,29.88,1,0,7,0.43
2013-12-7,47.7,39.2,28.8,45.8,33.3,25.4,93,81,50,30.18,29.84,2,0,15,0.26
2013-12-8,44.1,32.3,26.6,32.9,25.7,22.2,92,78,48,30.23,30.13,0,0,3,0.00
2013-12-9,47.5,32.1,24.8,31.5,23.5,20.7,86,72,37,30.34,30.23,0,0,2,0.00
2013-12-10,53.1,35.3,26.3,36.4,27.3,22.7,88,74,36,30.32,30.11,0,0,1,0.00
2013-12-11,56.9,38.9,30.1,38.3,30.0,25.9,89,73,37,30.14,30.07,0,0,2,0.00
2013-12-12,57.2,38.7,29.7,37.2,29.9,26.6,90,73,33,30.19,30.09,0,0,2,0.00
2013-12-13,58.2,39.2,29.8,40.0,31.6,26.9,92,76,42,30.25,30.15,0,0,1,0.00
2013-12-14,61.0,41.9,32.7,44.3,35.0,29.5,92,78,45,30.30,30.20,0,0,2,0.00
2013-12-15,63.0,44.0,34.0,45.0,36.0,30.9,91,76,35,30.27,30.13,0,0,0,0.00
2013-12-16,66.1,47.2,38.5,45.5,37.4,32.9,83,71,37,30.13,30.02,0,0,1,0.00
2013-12-17,65.2,48.7,40.2,49.0,40.4,33.9,83,74,51,30.08,29.94,0,0,0,0.00
2013-12-18,59.5,49.0,42.9,47.3,42.4,37.8,85,78,61,29.94,29.71,2,0,6,0.00
2013-12-19,55.7,46.5,36.2,42.6,35.3,29.7,89,67,39,29.85,29.65,1,0,8,0.00
2013-12-20,59.5,41.9,31.2,30.1,21.0,3.7,79,51,11,29.95,29.83,1,0,4,0.00
2013-12-21,66.2,44.7,34.0,46.6,34.9,23.9,91,70,39,30.00,29.88,1,0,4,0.00
2013-12-22,63.1,44.8,36.0,44.7,38.3,33.4,92,80,39,30.23,30.00,0,0,2,0.00
2013-12-23,62.1,44.6,36.2,45.9,38.4,33.8,93,80,47,30.31,30.22,0,0,1,0.00
2013-12-24,67.1,47.9,38.0,45.5,38.5,33.0,91,73,38,30.25,30.11,1,0,5,0.00
2013-12-25,66.1,47.0,37.8,44.8,36.9,32.5,87,70,35,30.19,30.09,0,0,2,0.00
2013-12-26,67.0,46.3,37.2,44.3,36.5,33.1,88,71,33,30.16,30.05,0,0,0,0.00
2013-12-27,62.4,46.5,37.3,47.1,37.8,30.9,83,72,48,30.14,30.03,0,0,1,0.00
2013-12-28,65.0,45.5,34.3,35.4,29.5,23.8,83,58,22,30.04,29.94,1,0,6,0.00
2013-12-29,65.3,45.8,37.5,39.5,30.0,25.4,71,57,23,30.10,29.99,0,0,3,0.00
2013-12-30,61.5,43.7,34.3,37.3,31.0,27.6,83,63,28,30.20,30.09,1,0,5,0.00
2013-12-31,61.1,42.7,32.1,39.9,30.5,24.2,78,64,31,30.19,30.05,0,0,1,0.00
2014-1-1,63.9,44.4,33.7,42.2,33.1,27.6,82,66,37,30.14,30.02,0,0,1,0.00
2014-1-2,66.4,47.5,37.8,44.9,36.5,31.2,83,67,38,30.08,29.96,0,0,1,0.00